This is the latest recevied weather packets stored in our database for station/object OE9GTV. If no packets are shown the sender has not sent any weather packets the latest 10 day(s).
| Time | Temp. | Humidity | Pressure | Rain* | Wind** | Luminosity | Snow |
|---|---|---|---|---|---|---|---|
| 1777717872 | 21.67° C | 45% | 1018.6 hPa | 0 mm | - | 0 W/m² | - |
| 1777717273 | 21.67° C | 46% | 1018.7 hPa | 0 mm | - | 0 W/m² | - |
| 1777716672 | 21.67° C | 50% | 1018.9 hPa | 0 mm | - | 0 W/m² | - |
| 1777716072 | 21.67° C | 49% | 1019 hPa | 0 mm | - | 0 W/m² | - |
| 1777715472 | 21.11° C | 49% | 1019.1 hPa | 0 mm | - | 0 W/m² | - |
| 1777714873 | 21.11° C | 51% | 1019.3 hPa | 0 mm | - | 0 W/m² | - |
| 1777714272 | 20.56° C | 51% | 1019.3 hPa | 0 mm | - | 0 W/m² | - |
| 1777713672 | 20.56° C | 50% | 1019.4 hPa | 0 mm | - | 0 W/m² | - |
| 1777713072 | 20.56° C | 51% | 1019.5 hPa | 0 mm | - | 0 W/m² | - |
| 1777712472 | 20.56° C | 51% | 1019.6 hPa | 0 mm | - | 0 W/m² | - |
| 1777711872 | 20° C | 51% | 1019.7 hPa | 0 mm | - | 0 W/m² | - |
| 1777711272 | 20° C | 51% | 1019.7 hPa | 0 mm | - | 0 W/m² | - |
| 1777710672 | 18.89° C | 53% | 1019.8 hPa | 0 mm | - | 0 W/m² | - |
| 1777710072 | 18.89° C | 52% | 1019.9 hPa | 0 mm | - | 0 W/m² | - |
| 1777709472 | 18.89° C | 53% | 1019.9 hPa | 0 mm | - | 0 W/m² | - |
| 1777708872 | 17.78° C | 54% | 1020 hPa | 0 mm | - | 0 W/m² | - |
| 1777708271 | 17.78° C | 57% | 1020.1 hPa | 0 mm | - | 0 W/m² | - |
| 1777707671 | 16.67° C | 59% | 1020.3 hPa | 0 mm | - | 0 W/m² | - |
| 1777707071 | 16.11° C | 60% | 1020.4 hPa | 0 mm | - | 0 W/m² | - |
| 1777706471 | 15.56° C | 63% | 1020.4 hPa | 0 mm | - | 0 W/m² | - |
| 1777705871 | 12.78° C | 77% | 1020.4 hPa | 0 mm | - | 0 W/m² | - |
| 1777705271 | 11.67° C | 79% | 1020.5 hPa | 0 mm | - | 0 W/m² | - |
| 1777704671 | 11.11° C | 79% | 1020.7 hPa | 0 mm | - | 0 W/m² | - |
| 1777704071 | 10.56° C | 79% | 1020.7 hPa | 0 mm | - | 0 W/m² | - |
| 1777703471 | 10.56° C | 79% | 1020.7 hPa | 0 mm | - | 0 W/m² | - |
* Rain latest hour (hover to see other rain measurements)
** Current wind speed in m/s (hover to see current wind gust speed)